400P/PanSTARRS (2014)

Japanese version
Home page
Updated on October 17, 2020

---------------------------------------------------------------------

* Profile

Designation 400P/2013 PA104

* Orbital Elements

Epoch 2014 Apr. 13.0 TT = JDT 2456760.5                                         
T 2014 May 1.67399 TT                                   Rudenko                 
q   2.1727894            (2000.0)            P               Q                  
n   0.14436374     Peri.  238.02360     +0.56994520     -0.82162988             
a   3.5988519      Node   177.17737     +0.80319921     +0.55469712             
e   0.3962548      Incl.   10.90617     +0.17330176     +0.13128384             
P   6.83                                                                        
From 94 observations 2013 Aug. 15-2020 Sept. 10, mean residual 0".4.            

* Magnitudes Graph

        m1 = 14.5 + 5 log d + 10.0 log r

---------------------------------------------------------------------

The orbital elements are published on M.P.E.C. 2020-R101.
The magnitudes graphs are made with Comet for Windows.

---------------------------------------------------------------------

Copyright(C) Seiichi Yoshida (comet@aerith.net). All rights reserved.